When you browse on this site, cookies collect data to enhance your experience and personalize the content and advertising you see.
Visit our Privacy Policy to learn more. By continuing to use the site, you agree to this use of cookies and data.
  • In United Kingdom
  • List of Countries
  • For 7 days
  • Water Temperature
  • Satellite Maps
  • Weather Map
  • Weather Widgets
  • user-avatar
    Login

    Hourly Weather Qorao‘zak

    Today, 16 January, Wednesday

    Time Temperature Precipitation Wind Pressure Humidity
    00:00 -4°C° 0 mm 3 mps 760 mmHg 81%
    01:00 -4°C° 0 mm 3 mps 760 mmHg 81%
    02:00 -4°C° 0 mm 3 mps 760 mmHg 81%
    03:00 -4°C° 0 mm 3 mps 760 mmHg 82%
    04:00 -5°C° 0 mm 3 mps 760 mmHg 81%
    05:00 -5°C° 0 mm 3 mps 760 mmHg 81%
    06:00 -5°C° 0 mm 3 mps 760 mmHg 81%
    07:00 -5°C° 0 mm 3 mps 760 mmHg 81%
    08:00 -4°C° 0 mm 4 mps 760 mmHg 76%
    09:00 -3°C° 0 mm 4 mps 760 mmHg 72%
    10:00 -2°C° 0 mm 5 mps 761 mmHg 67%
    11:00 -1°C° 0 mm 5 mps 760 mmHg 64%
    12:00 0°C° 0 mm 5 mps 760 mmHg 61%
    13:00 +1°C° 0 mm 5 mps 760 mmHg 57%
    14:00 +1°C° 0 mm 5 mps 759 mmHg 59%
    15:00 +1°C° 0 mm 6 mps 759 mmHg 61%
    16:00 +1°C° 0 mm 6 mps 759 mmHg 63%
    17:00 -1°C° 0 mm 6 mps 758 mmHg 68%
    18:00 -2°C° 0 mm 6 mps 758 mmHg 72%
    19:00 -2°C° 0 mm 6 mps 758 mmHg 77%
    20:00 -2°C° 0 mm 6 mps 758 mmHg 78%
    21:00 -2°C° 0 mm 6 mps 758 mmHg 80%
    22:00 -2°C° 0 mm 6 mps 757 mmHg 82%
    23:00 -2°C° 0 mm 6 mps 757 mmHg 82%

    Tomorrow, 17 January, Thursday

    Time Temperature Precipitation Wind Pressure Humidity
    00:00 -2°C° 0 mm 6 mps 757 mmHg 82%
    01:00 -1°C° 0 mm 6 mps 756 mmHg 82%
    02:00 -1°C° 0 mm 6 mps 756 mmHg 80%
    03:00 -1°C° 0 mm 6 mps 755 mmHg 79%
    04:00 -1°C° 0 mm 6 mps 755 mmHg 78%
    05:00 -1°C° 0 mm 6 mps 755 mmHg 77%
    06:00 -1°C° 0 mm 6 mps 754 mmHg 77%
    07:00 -1°C° 0 mm 6 mps 754 mmHg 76%
    08:00 +2°C° 0 mm 7 mps 754 mmHg 71%
    09:00 +3°C° 0 mm 7 mps 753 mmHg 66%
    10:00 +4°C° 0 mm 8 mps 753 mmHg 61%
    11:00 +6°C° 0 mm 8 mps 752 mmHg 59%
    12:00 +7°C° 0 mm 8 mps 751 mmHg 56%
    13:00 +9°C° 0 mm 8 mps 751 mmHg 53%
    14:00 +9°C° 0 mm 7 mps 750 mmHg 53%
    15:00 +9°C° 0 mm 6 mps 750 mmHg 53%
    16:00 +9°C° 0 mm 5 mps 749 mmHg 53%
    17:00 +8°C° 0 mm 5 mps 749 mmHg 57%
    18:00 +7°C° 0 mm 6 mps 749 mmHg 61%
    19:00 +5°C° 0 mm 6 mps 748 mmHg 64%
    20:00 +5°C° 0 mm 6 mps 748 mmHg 63%
    21:00 +5°C° 0 mm 6 mps 748 mmHg 61%
    22:00 +4°C° 0 mm 6 mps 747 mmHg 59%
    23:00 +5°C° 0 mm 5 mps 747 mmHg 59%

    Day after tomorrow, 18 January, Friday

    Time Temperature Precipitation Wind Pressure Humidity
    00:00 +5°C° 0 mm 5 mps 746 mmHg 58%
    01:00 +5°C° 0 mm 5 mps 746 mmHg 58%
    02:00 +5°C° 0 mm 5 mps 745 mmHg 58%
    03:00 +5°C° 0 mm 4 mps 745 mmHg 57%
    04:00 +4°C° 0 mm 4 mps 745 mmHg 57%
    05:00 +4°C° 0 mm 4 mps 744 mmHg 57%
    06:00 +4°C° 0 mm 4 mps 744 mmHg 58%
    07:00 +4°C° 0 mm 4 mps 744 mmHg 58%
    08:00 +5°C° 0 mm 4 mps 744 mmHg 57%
    09:00 +5°C° 0 mm 5 mps 744 mmHg 56%
    10:00 +6°C° 0 mm 5 mps 744 mmHg 55%
    11:00 +6°C° 0.6 mm 5 mps 744 mmHg 61%
    12:00 +6°C° 0.6 mm 4 mps 743 mmHg 67%
    13:00 +6°C° 0.6 mm 4 mps 743 mmHg 72%
    14:00 +6°C° 0.2 mm 4 mps 743 mmHg 77%
    15:00 +5°C° 0.2 mm 4 mps 743 mmHg 82%
    16:00 +5°C° 0.2 mm 5 mps 743 mmHg 87%
    17:00 +3°C° 0.1 mm 5 mps 744 mmHg 87%
    18:00 +2°C° 0.1 mm 5 mps 744 mmHg 87%
    19:00 +2°C° 0.1 mm 6 mps 745 mmHg 87%
    20:00 +1°C° 0.1 mm 6 mps 745 mmHg 87%
    21:00 0°C° 0.1 mm 7 mps 745 mmHg 86%
    22:00 0°C° 0.1 mm 7 mps 745 mmHg 85%
    23:00 -1°C° 0.1 mm 8 mps 746 mmHg 85%

    19 January, Saturday

    Time Temperature Precipitation Wind Pressure Humidity
    00:00 -1°C° 0.1 mm 8 mps 746 mmHg 84%
    01:00 -1°C° 0.1 mm 9 mps 747 mmHg 83%
    02:00 -2°C° 0.3 mm 10 mps 747 mmHg 83%
    03:00 -2°C° 0.3 mm 10 mps 747 mmHg 84%
    04:00 -3°C° 0.3 mm 11 mps 747 mmHg 84%
    05:00 -3°C° 0.3 mm 12 mps 748 mmHg 84%
    06:00 -3°C° 0.3 mm 12 mps 748 mmHg 85%
    07:00 -5°C° 0.3 mm 13 mps 748 mmHg 85%
    08:00 -5°C° 0.4 mm 13 mps 749 mmHg 86%
    09:00 -5°C° 0.4 mm 13 mps 749 mmHg 87%
    10:00 -3°C° 0.4 mm 12 mps 749 mmHg 88%
    11:00 -3°C° 0.3 mm 12 mps 749 mmHg 88%
    12:00 -3°C° 0.3 mm 12 mps 750 mmHg 88%
    13:00 -3°C° 0.3 mm 11 mps 750 mmHg 88%
    14:00 -3°C° 0.3 mm 11 mps 750 mmHg 88%
    15:00 -3°C° 0.3 mm 11 mps 750 mmHg 88%
    16:00 -4°C° 0.3 mm 11 mps 751 mmHg 87%
    17:00 -4°C° 0.3 mm 10 mps 751 mmHg 88%
    18:00 -4°C° 0.3 mm 10 mps 752 mmHg 89%
    19:00 -5°C° 0.3 mm 10 mps 752 mmHg 89%
    20:00 -5°C° 0.3 mm 9 mps 753 mmHg 90%
    21:00 -5°C° 0.3 mm 9 mps 753 mmHg 90%
    22:00 -6°C° 0.3 mm 9 mps 753 mmHg 90%
    23:00 -6°C° 0.2 mm 9 mps 754 mmHg 90%

    20 January, Sunday

    Time Temperature Precipitation Wind Pressure Humidity
    00:00 -6°C° 0.2 mm 8 mps 754 mmHg 90%
    01:00 -6°C° 0.2 mm 8 mps 754 mmHg 90%
    02:00 -6°C° 0.1 mm 8 mps 755 mmHg 90%
    03:00 -6°C° 0.1 mm 8 mps 755 mmHg 89%
    04:00 -6°C° 0.1 mm 8 mps 756 mmHg 89%
    05:00 -6°C° 0.1 mm 7 mps 756 mmHg 89%
    06:00 -6°C° 0.1 mm 7 mps 757 mmHg 89%
    07:00 -6°C° 0.1 mm 6 mps 758 mmHg 89%
    08:00 -7°C° 0 mm 7 mps 758 mmHg 88%
    09:00 -7°C° 0 mm 7 mps 759 mmHg 88%
    10:00 -7°C° 0 mm 7 mps 760 mmHg 87%
    11:00 -6°C° 0 mm 7 mps 760 mmHg 87%
    12:00 -4°C° 0 mm 7 mps 760 mmHg 87%
    13:00 -3°C° 0 mm 7 mps 760 mmHg 87%
    14:00 -2°C° 0 mm 6 mps 761 mmHg 88%
    15:00 -2°C° 0 mm 6 mps 761 mmHg 89%
    16:00 -1°C° 0 mm 5 mps 761 mmHg 90%
    17:00 -1°C° 0 mm 4 mps 762 mmHg 90%
    18:00 -2°C° 0 mm 4 mps 762 mmHg 91%
    19:00 -1°C° 0 mm 3 mps 763 mmHg 92%
    20:00 -1°C° 0 mm 3 mps 763 mmHg 92%
    21:00 -1°C° 0 mm 3 mps 764 mmHg 92%
    22:00 -2°C° 0 mm 3 mps 764 mmHg 93%
    23:00 -2°C° 0 mm 3 mps 764 mmHg 93%

    21 January, Monday

    Time Temperature Precipitation Wind Pressure Humidity
    00:00 -2°C° 0 mm 3 mps 765 mmHg 93%
    01:00 -2°C° 0 mm 3 mps 765 mmHg 93%
    02:00 -1°C° 0 mm 2 mps 765 mmHg 92%
    03:00 -1°C° 0 mm 2 mps 765 mmHg 92%
    04:00 -1°C° 0 mm 2 mps 765 mmHg 91%
    05:00 -2°C° 0 mm 2 mps 766 mmHg 91%
    06:00 -2°C° 0 mm 2 mps 766 mmHg 90%
    07:00 -3°C° 0 mm 2 mps 766 mmHg 89%
    08:00 -2°C° 0 mm 2 mps 766 mmHg 88%
    09:00 -2°C° 0 mm 2 mps 767 mmHg 86%
    10:00 -1°C° 0 mm 2 mps 767 mmHg 84%
    11:00 +1°C° 0 mm 2 mps 767 mmHg 82%
    12:00 +1°C° 0 mm 2 mps 766 mmHg 80%
    13:00 +1°C° 0 mm 2 mps 766 mmHg 78%
    14:00 +1°C° 0 mm 2 mps 766 mmHg 79%
    15:00 +1°C° 0 mm 2 mps 766 mmHg 81%
    16:00 +1°C° 0 mm 2 mps 766 mmHg 82%
    17:00 -1°C° 0 mm 3 mps 766 mmHg 85%
    18:00 -2°C° 0 mm 3 mps 766 mmHg 88%
    19:00 -3°C° 0 mm 4 mps 766 mmHg 91%
    20:00 -4°C° 0 mm 4 mps 766 mmHg 88%
    21:00 -4°C° 0 mm 4 mps 765 mmHg 86%
    22:00 -4°C° 0 mm 4 mps 765 mmHg 84%
    23:00 -4°C° 0 mm 4 mps 765 mmHg 84%
    Show more